Location: Pardubice
(50.0330°N, 15.7830°E)
Time: 10:25:39
(UTC+02:00)

SR - All Passes

Search period start: 07 October 2024 00:00
Search period end: 17 October 2024 00:00
Orbit: 578 x 855 km, 66.7° (Epoch: 06 October)

Date Brightness Start Highest point End Pass type
(mag) Time Alt. Az. Time Alt. Az. Time Alt. Az.
07 Oct - 07:55:29 10° SSE 07:58:31 19° ESE 08:01:36 10° ENE daylight
07 Oct - 09:35:40 10° SW 09:39:50 59° NW 09:44:12 10° NNE daylight
07 Oct - 11:19:55 10° WNW 11:22:36 16° NNW 11:25:21 10° NNE daylight
07 Oct - 14:47:12 10° NNW 14:50:10 16° NNE 14:53:17 10° ENE daylight
07 Oct - 16:28:16 10° NNW 16:32:57 55° NE 16:38:00 10° SE daylight
07 Oct - 18:10:25 10° NW 18:14:34 28° WSW 18:18:58 10° S daylight
08 Oct - 08:42:35 10° SSW 08:46:46 68° ESE 08:51:07 10° NE daylight
08 Oct - 10:25:32 10° W 10:28:59 23° NW 10:32:36 10° NNE daylight
08 Oct - 12:11:40 10° NNW 12:12:29 10° N 12:13:19 10° N daylight
08 Oct - 13:54:31 10° N 13:56:26 12° NNE 13:58:24 10° NE daylight
08 Oct - 15:35:24 10° NNW 15:39:39 32° NE 15:44:12 10° ESE daylight
08 Oct - 17:16:57 10° NW 17:21:41 54° WSW 17:26:46 10° SSE daylight
09 Oct - 07:50:09 10° S 07:53:53 31° ESE 07:57:44 10° NE daylight
09 Oct - 09:31:35 10° WSW 09:35:34 39° NW 09:39:44 10° NNE daylight
09 Oct - 11:16:35 10° NW 11:18:39 13° NNW 11:20:45 10° N daylight
09 Oct - 13:01:59 10° N 13:02:33 10° N 13:03:08 10° NNE daylight
09 Oct - 14:42:35 10° NNW 14:46:09 21° NNE 14:49:55 10° E daylight
09 Oct - 16:23:49 10° NW 16:28:38 81° NE 16:33:51 10° SE daylight
09 Oct - 18:06:36 10° WNW 18:09:58 19° WSW 18:13:30 10° SSW daylight
10 Oct - 06:58:48 10° SE 07:01:11 15° ESE 07:03:38 10° ENE daylight
10 Oct - 08:38:07 10° SW 08:42:20 76° NW 08:46:45 10° NE daylight
10 Oct - 10:21:55 10° WNW 10:24:55 18° NNW 10:28:01 10° NNE daylight
10 Oct - 13:49:49 10° NNW 13:52:29 15° NNE 13:55:15 10° ENE daylight
10 Oct - 15:30:50 10° NNW 15:35:25 45° NE 15:40:22 10° ESE daylight
10 Oct - 17:12:44 10° NW 17:17:11 35° WSW 17:21:56 10° S daylight
11 Oct - 07:45:13 10° SSW 07:49:18 52° ESE 07:53:33 10° NE daylight
11 Oct - 09:27:39 10° W 09:31:21 28° NW 09:35:12 10° NNE daylight
11 Oct - 11:13:20 10° NNW 11:14:42 11° NNW 11:16:06 10° N daylight
11 Oct - 12:57:06 10° N 12:58:40 11° NNE 13:00:15 10° NNE daylight
11 Oct - 14:37:57 10° NNW 14:42:02 27° NE 14:46:21 10° E daylight
11 Oct - 16:19:24 10° NW 16:24:13 69° WSW 16:29:26 10° SSE daylight
11 Oct - 18:03:33 10° W 18:05:16 12° WSW 18:07:01 10° SW daylight
12 Oct - 06:53:04 10° SSE 06:56:28 24° ESE 06:59:59 10° ENE daylight
12 Oct - 08:33:50 10° WSW 08:37:57 48° NW 08:42:16 10° NNE daylight
12 Oct - 10:18:25 10° WNW 10:20:52 14° NNW 10:23:23 10° NNE daylight
12 Oct - 13:45:08 10° NNW 13:48:27 18° NNE 13:51:55 10° ENE daylight
12 Oct - 15:26:17 10° NNW 15:31:05 65° NE 15:36:17 10° SE daylight
12 Oct - 17:08:40 10° WNW 17:12:34 24° WSW 17:16:42 10° SSW daylight
13 Oct - 06:02:33 10° ESE 06:03:49 11° ESE 06:05:06 10° E visible
13 Oct - 07:40:33 10° SSW 07:44:46 85° ESE 07:49:12 10° NE daylight
13 Oct - 09:23:52 10° W 09:27:10 21° NNW 09:30:35 10° NNE daylight
13 Oct - 11:10:11 10° NNW 11:10:46 10° N 11:11:22 10° N daylight
13 Oct - 12:52:22 10° N 12:54:41 13° NNE 12:57:06 10° NE daylight
13 Oct - 14:33:19 10° NNW 14:37:46 37° NE 14:42:34 10° ESE daylight
13 Oct - 16:15:02 10° NW 16:19:41 45° WSW 16:24:42 10° S daylight
14 Oct - 06:47:51 10° S 06:51:48 39° ESE 06:55:53 10° NE daylight
14 Oct - 08:29:45 10° WSW 08:33:38 33° NW 08:37:42 10° NNE daylight
14 Oct - 10:15:02 10° NW 10:16:51 12° NNW 10:18:42 10° N daylight
14 Oct - 11:59:36 10° N 12:00:47 11° N 12:02:00 10° NNE daylight
14 Oct - 13:40:26 10° NNW 13:44:18 24° NE 13:48:23 10° E daylight
14 Oct - 15:21:45 10° NW 15:26:39 85° SW 15:31:55 10° SSE daylight
14 Oct - 17:04:58 10° WNW 17:07:51 15° WSW 17:10:50 10° SW daylight
15 Oct - 05:56:02 10° SSE 05:59:00 19° ESE 06:02:02 10° ENE visible
15 Oct - 07:36:06 10° SW 07:40:17 62° NW 07:44:43 10° NNE daylight
15 Oct - 09:20:14 10° WNW 09:23:01 16° NNW 09:25:55 10° NNE daylight
15 Oct - 12:47:36 10° NNW 12:50:37 16° NNE 12:53:46 10° ENE daylight
15 Oct - 14:28:41 10° NNW 14:33:25 53° NE 14:38:32 10° SE daylight
15 Oct - 16:10:47 10° NW 16:15:04 30° WSW 16:19:37 10° S daylight
16 Oct - 06:42:58 10° SSW 06:47:09 65° ESE 06:51:32 10° NE visible
16 Oct - 08:25:48 10° W 08:29:21 24° NW 08:33:03 10° NNE daylight
16 Oct - 10:11:41 10° NNW 10:12:50 11° N 10:13:59 10° N daylight
16 Oct - 11:54:47 10° N 11:56:47 12° NNE 11:58:49 10° NE daylight
16 Oct - 13:35:44 10° NNW 13:40:02 32° NE 13:44:38 10° ESE daylight
16 Oct - 15:17:17 10° NW 15:22:06 57° WSW 15:27:18 10° SSE daylight
